Simultaneous Nadir Overpasses (SNOs) Predictions

Prediction of SNOs between METOP-A and NOAA-19 Satellite Orbit:

Table of predicted SNOs for the next 14.0 days since TLE Epoch: 9/7/2013
Index Date (METOP-A) Time (METOP-A) Lat,Lon (METOP-A) SZA (METOP-A ) Date (NOAA-19) Time (NOAA-19) Lat,Lon (NOAA-19) SZA (NOAA-19 ) Distance(km) Time Diff (sec)
1 09/17/2013 03:25:50 -74.03, -56.93 108.24 09/17/2013 03:24:40 -74.03, -58.90 108.18 60.26 70
2 09/17/2013 04:16:39 73.59, 109.35 71.36 09/17/2013 04:15:40 73.61, 109.34 71.39 2.64 59
3 09/17/2013 05:07:21 -73.56, -83.38 108.65 09/17/2013 05:06:35 -73.57, -83.30 108.64 2.62 46
4 09/17/2013 05:58:01 73.57, 83.97 71.37 09/17/2013 05:57:43 73.55, 83.98 71.35 2.78 18
5 09/17/2013 06:48:43 -73.55,-108.76 108.65 09/17/2013 06:48:39 -73.55,-108.77 108.64 1.00 4
6
